Regional Weather Roundup
Issued by NWS

Home | Current Version | Previous Version | Graphics & Text | Print | Product List | Glossary On
Versions: 1 2 3 4 5 6 7 8 9 10 11 12 13 14 15 16 17 18 19 20 21 22 23 24 25 26 27 28 29 30 31 32 33 34 35 36 37 38 39 40 41 42 43 44 45 46 47 48 49 50
000
ASUS43 KLMK 161902
RWRKY
KENTUCKY REGIONAL WEATHER ROUNDUP
NATIONAL WEATHER SERVICE LOUISVILLE KY
300 PM EDT TUE SEP 16 2014

NOTE "FAIR" INDICATES FEW OR NO CLOUDS BELOW 12,000 FEET
WITH NO SIGNIFICANT WEATHER AND/OR OBSTRUCTIONS TO VISIBILITY.

KYZ001>023-026-027-061>063-070>075-162000-
WESTERN AND SOUTH CENTRAL KENTUCKY

CITY           SKY/WX    TMP DP  RH WIND       PRES   REMARKS
PADUCAH        MOSUNNY   70  55  59 NE9G17    30.13F
HENDERSON      CLOUDY    64  52  63 N7        30.15F
OWENSBORO      PTSUNNY   67  55  65 N8        30.14F
HOPKINSVILLE   CLOUDY    69  58  69 N14       30.12F
BOWLING GREEN  PTSUNNY   71  57  61 N6        30.11F
GLASGOW        NOT AVBL
$$

KYZ024-025-028>034-038-045-046-053-162000-
NORTH CENTRAL KENTUCKY

CITY           SKY/WX    TMP DP  RH WIND       PRES   REMARKS
LOUISVILLE/SDF PTSUNNY   70  56  61 N13       30.11F
LOUISVILLE/LOU PTSUNNY   68  56  65 N6G16     30.12F
FORT KNOX      DRIZZLE   69  55  60 NW10      30.11F
$$

KYZ035>037-039>044-047>052-055>060-089>105-162000-
NORTHEAST KENTUCKY

CITY           SKY/WX    TMP DP  RH WIND       PRES   REMARKS
LEXINGTON      PTSUNNY   70  57  63 N7        30.11F
COVINGTON      CLOUDY    61  49  64 N3        30.14F
FRANKFORT      PTSUNNY   68  53  58 VRB7      30.11F
$$

KYZ054-064>069-076>088-106>120-162000-
SOUTHEAST KENTUCKY

CITY           SKY/WX    TMP DP  RH WIND       PRES   REMARKS
JACKSON        CLOUDY    62  59  90 CALM      30.10F
LONDON         PTSUNNY   72  59  63 NW5       30.09F
SOMERSET       NOT AVBL
MIDDLESBORO    CLOUDY    69  64  85 N5        30.09F
MONTICELLO     CLOUDY    70  61  73 CALM      30.11F
$$




USA.gov is the U.S. government's official web portal to all federal, state and local government web resources and services.